User: anonymous   Login
Location: Baix
(44.7118°N, 4.7648°E)
Time: 10:02:08
(UTC+00:00)
Language:

Cosmos 1455 Rocket - Orbit

View from above orbital plane
View from above orbital plane
View from above satellite
View from above satellite

Ground track
Ground track

The orbit data is extracted from the following two-line orbital elements,

1 14033U 83037B   20305.16171926  .00000076  00000-0  62858-5 0  9992
2 14033  82.5052 270.3536 0018187  16.0703 344.1085 14.83822717662296
Epoch (UTC): 31 October 2020 03:52:52
Eccentricity: 0.0018187
inclination: 82.5052°
perigee height: 604 km
apogee height: 630 km
right ascension of ascending node: 270.3536°
argument of perigee: 16.0703°
revolutions per day: 14.83822717
mean anomaly at epoch: 344.1085°
orbit number at epoch: 66229

The dashed part of the orbit path shows where the satellite is in the earth's shadow,  

DLR